[[{"header":{"parameterUnit":"m.s-1","parameterCategory":1,"la1":30.2991,"la2":30.254,"lo1":-89.0895,"lo2":-89.0444,"dy":0.0017,"dx":0.0017,"nx":28,"ny":28,"refTime":"2026-02-11T09:00:00:Z","depth":0,"parameterNumber":2,"parameterNumberName":"U-component_of_WINDS"},"data":[0,0,0,0,0,0,0,0,0,0,0,0,0,0,0,0,0,0,0,0,0,0,0,0,0,0,0,0,0,0,0,0,0,0,0,0,0,0,0,0,0,0,0,0,0,0,0,0,0,0,0,0,0,0,0,0,0,0,-1.6573,-1.6573,0,-1.6593,-1.6593,-1.6594,-1.6591,-1.6591,-1.6591,-1.659,-1.6611,-1.6612,-1.6613,0,0,0,0,0,0,0,0,0,0,0,0,0,-1.6533,-1.6534,-1.6573,-1.6573,-1.6573,-1.6593,-1.6593,-1.6594,-1.6591,-1.6591,-1.6591,-1.659,-1.6611,-1.6612,-1.6613,0,0,0,0,0,0,0,0,0,0,0,0,0,-1.6551,-1.6534,-1.6573,-1.6575,-1.6575,-1.6593,-1.6593,-1.6594,-1.6591,-1.6591,-1.659,-1.659,-1.661,-1.6612,-1.6613,-1.663,0,0,-1.6617,-1.6617,0,0,0,0,0,0,0,0,-1.655,-1.6553,-1.6574,-1.6575,-1.6575,-1.6589,-1.6587,-1.6606,-1.6592,-1.6585,-1.659,-1.659,-1.6604,-1.6606,-1.6611,-1.6631,-1.6632,-1.6617,-1.6618,-1.6618,-1.6619,0,0,0,0,0,0,0,-1.6549,-1.6552,-1.6581,-1.6574,-1.6575,-1.6575,-1.6577,-1.659,-1.6597,-1.6586,-1.6586,-1.6588,-1.6604,-1.661,-1.6611,-1.6633,-1.6617,-1.6618,-1.6619,-1.6619,-1.6669,-1.667,0,0,0,0,0,0,-1.6547,-1.6551,-1.658,-1.6581,-1.6561,-1.6576,-1.6578,-1.6585,-1.6597,-1.6598,-1.6588,-1.6588,-1.6608,-1.661,-1.6612,-1.6633,-1.6618,-1.6619,-1.662,-1.6669,-1.6669,-1.667,0,0,0,0,0,0,-1.6546,-1.655,-1.6579,-1.6566,-1.657,-1.6577,-1.6585,-1.6586,-1.6591,-1.6599,-1.66,-1.6592,-1.6607,-1.661,-1.6626,-1.6634,-1.662,-1.6621,-1.6668,-1.6669,-1.667,-1.6677,0,0,0,0,0,0,-1.6545,-1.655,-1.6556,-1.6566,-1.6571,-1.6593,-1.6585,-1.6587,-1.6593,-1.6593,-1.6603,-1.6604,-1.6607,-1.6624,-1.6627,-1.6636,-1.6622,-1.6667,-1.6668,-1.6669,-1.6676,-1.6677,-1.6679,0,0,0,0,0,-1.6544,-1.6557,-1.6556,-1.656,-1.6579,-1.6593,-1.6596,-1.6599,-1.6594,-1.6601,-1.6606,-1.6604,-1.6633,-1.6626,-1.6629,-1.6638,-1.6667,-1.6668,-1.6669,-1.6675,-1.6677,-1.6679,0,0,0,0,0,0,-1.6547,-1.6558,-1.6558,-1.6575,-1.6583,-1.6593,-1.6601,-1.6601,-1.6611,-1.661,-1.6613,-1.6616,-1.6632,-1.6637,-1.6628,-1.6656,-1.6649,-1.6651,-1.6652,-1.6654,-1.6656,-1.6654,-1.6623,0,0,0,0,0,-1.655,-1.6561,-1.657,-1.6584,-1.6588,-1.6594,-1.6601,-1.6602,-1.6611,-1.6615,-1.6621,-1.663,-1.6641,-1.6648,-1.6659,-1.6677,-1.6679,-1.6685,-1.6686,-1.6688,-1.6689,-1.67,-1.6702,-1.6674,-1.6674,-1.6674,0,0,-1.6556,-1.6563,-1.657,-1.6585,-1.6592,-1.6603,-1.6597,-1.6609,-1.6618,-1.6616,-1.6632,-1.6637,-1.6647,-1.6664,-1.6672,-1.6669,-1.6698,-1.6689,-1.669,-1.6691,-1.6701,-1.6704,-1.6706,-1.6675,-1.6675,-1.6675,0,0,-1.6572,-1.6579,-1.6591,-1.6598,-1.6609,-1.6613,-1.6616,-1.6626,-1.6629,-1.6645,-1.6644,-1.6655,-1.6674,-1.6681,-1.6687,-1.6707,-1.6706,-1.6711,-1.672,-1.673,-1.6732,-1.6734,-1.6741,-1.6744,-1.6712,-1.6712,-1.6712,0,-1.6578,-1.6595,-1.6598,-1.661,-1.6617,-1.6617,-1.663,-1.6637,-1.665,-1.6655,-1.6651,-1.6675,-1.6682,-1.6701,-1.6706,-1.6711,-1.6715,-1.6709,-1.6731,-1.6733,-1.6735,-1.6742,-1.6745,-1.6713,-1.6713,-1.6713,-1.6713,0,-1.6601,-1.6613,-1.6622,-1.6635,-1.6643,-1.6656,-1.6661,-1.6669,-1.667,-1.6675,-1.6691,-1.6699,-1.6711,-1.6716,-1.6717,-1.6736,-1.6733,-1.673,-1.6724,-1.6738,-1.6745,-1.6747,-1.6713,-1.6713,-1.6713,-1.6713,0,0,-1.6619,-1.6635,-1.6638,-1.6644,-1.6656,-1.6665,-1.6678,-1.6691,-1.6697,-1.6707,-1.6718,-1.6734,-1.6732,-1.6739,-1.6741,-1.675,-1.6766,-1.6746,-1.6746,-1.6749,-1.6786,-1.6788,-1.6791,-1.6765,-1.6766,-1.6766,-1.6786,0,-1.6637,-1.6659,-1.6663,-1.6683,-1.6694,-1.6694,-1.6706,-1.6714,-1.6719,-1.673,-1.6735,-1.6747,-1.6743,-1.6747,-1.6756,-1.6762,-1.6773,-1.676,-1.6775,-1.6776,-1.6772,-1.6795,-1.6796,-1.6814,-1.6788,-1.6789,-1.6789,0,-1.6659,-1.667,-1.6691,-1.6702,-1.6707,-1.6717,-1.6729,-1.6738,-1.6749,-1.6752,-1.676,-1.6761,-1.6775,-1.6768,-1.6787,-1.6779,-1.6785,-1.6789,-1.679,-1.6791,-1.6783,-1.6796,-1.682,-1.6823,-1.6793,-1.6793,-1.6792,0,-1.667,-1.669,-1.6705,-1.671,-1.6723,-1.673,-1.6736,-1.6746,-1.6753,-1.6764,-1.6769,-1.6781,-1.6788,-1.6797,-1.6802,-1.6796,-1.6821,-1.6814,-1.6824,-1.6824,-1.6828,-1.6828,-1.6853,-1.6833,-1.6833,-1.6833,-1.6833,0,-1.6689,-1.6702,-1.671,-1.6719,-1.6734,-1.6738,-1.6753,-1.6758,-1.6767,-1.6778,-1.6779,-1.6789,-1.6795,-1.6806,-1.681,-1.6826,-1.6829,-1.6832,-1.6832,-1.6831,-1.6831,-1.6835,-1.6834,-1.6834,-1.6834,-1.6834,-1.6834,0,-1.6703,-1.6709,-1.6726,-1.6737,-1.674,-1.6751,-1.6761,-1.677,-1.6775,-1.6789,-1.6792,-1.68,-1.6813,-1.6819,-1.6835,-1.6838,-1.6856,-1.6856,-1.6852,-1.6852,-1.6861,-1.686,-1.689,-1.6894,-1.6872,-1.6872,-1.6872,0,-1.6714,-1.6724,-1.6737,-1.6744,-1.675,-1.6762,-1.677,-1.6775,-1.6783,-1.6796,-1.6804,-1.6817,-1.6828,-1.6849,-1.6856,-1.6869,-1.6869,-1.6879,-1.6871,-1.687,-1.6869,-1.6868,-1.6869,-1.688,-1.688,-1.688,-1.688,0,-1.6733,-1.6736,-1.6747,-1.676,-1.6769,-1.6779,-1.6788,-1.6794,-1.6801,-1.681,-1.6824,-1.6832,-1.6849,-1.6862,-1.6876,-1.6882,-1.6882,-1.6883,-1.6886,-1.6884,-1.6882,-1.6883,-1.6856,-1.6882,-1.6882,-1.6882,-1.6882,-1.6882,-1.6746,-1.6755,-1.6766,-1.6778,-1.6786,-1.6796,-1.6805,-1.6812,-1.6823,-1.6837,-1.684,-1.6854,-1.6865,-1.6883,-1.689,-1.6901,-1.6899,-1.6903,-1.6904,-1.6905,-1.6905,-1.6881,-1.6904,-1.6904,-1.6904,-1.6904,-1.6904,0,-1.6765,-1.6772,-1.6784,-1.6798,-1.6808,-1.6808,-1.6819,-1.6827,-1.684,-1.685,-1.6861,-1.6876,-1.6889,-1.6898,-1.6912,-1.6919,-1.692,-1.6923,-1.6922,-1.6923,-1.6907,-1.6903,-1.6922,-1.6922,-1.6922,-1.6922,-1.6922,-1.6922,-1.6776,-1.6792,-1.6796,-1.6815,-1.6822,-1.6837,-1.6843,-1.6852,-1.686,-1.6877,-1.6888,-1.6894,-1.6904,-1.6918,-1.693,-1.6933,-1.6937,-1.694,-1.6942,-1.6926,-1.6924,-1.6923,-1.6919,-1.6941,-1.6941,-1.6958,-1.6958,-1.6958]},{"header":{"parameterUnit":"m.s-1","parameterCategory":1,"la1":30.2991,"la2":30.254,"lo1":-89.0895,"lo2":-89.0444,"dy":0.0017,"dx":0.0017,"nx":28,"ny":28,"refTime":"2026-02-11T09:00:00:Z","depth":0,"parameterNumber":3,"parameterNumberName":"V-component_of_WINDS"},"data":[0,0,0,0,0,0,0,0,0,0,0,0,0,0,0,0,0,0,0,0,0,0,0,0,0,0,0,0,0,0,0,0,0,0,0,0,0,0,0,0,0,0,0,0,0,0,0,0,0,0,0,0,0,0,0,0,0,0,-3.2949,-3.2949,0,-3.2971,-3.2971,-3.2971,-3.2982,-3.2982,-3.2982,-3.2982,-3.3001,-3.3001,-3.3002,0,0,0,0,0,0,0,0,0,0,0,0,0,-3.2914,-3.2915,-3.2949,-3.2949,-3.2949,-3.2971,-3.2971,-3.2972,-3.2982,-3.2982,-3.2982,-3.2982,-3.3001,-3.3001,-3.3002,0,0,0,0,0,0,0,0,0,0,0,0,0,-3.2932,-3.2915,-3.2949,-3.2957,-3.2958,-3.2971,-3.2971,-3.2972,-3.2982,-3.2982,-3.2982,-3.2982,-3.3,-3.3001,-3.3002,-3.3007,0,0,-3.3004,-3.3005,0,0,0,0,0,0,0,0,-3.2931,-3.2933,-3.2956,-3.2957,-3.2958,-3.2974,-3.2966,-3.2983,-3.2982,-3.2973,-3.2982,-3.2982,-3.2992,-3.2993,-3.2997,-3.3008,-3.3009,-3.3004,-3.3005,-3.3005,-3.3005,0,0,0,0,0,0,0,-3.2929,-3.2932,-3.2957,-3.2956,-3.2957,-3.2959,-3.2962,-3.2969,-3.2982,-3.2973,-3.2974,-3.2977,-3.2992,-3.2996,-3.2998,-3.3009,-3.3004,-3.3005,-3.3006,-3.3006,-3.3027,-3.3027,0,0,0,0,0,0,-3.2927,-3.2931,-3.2957,-3.2958,-3.2944,-3.296,-3.2963,-3.2969,-3.2982,-3.2984,-3.2977,-3.2977,-3.2995,-3.2997,-3.2998,-3.3007,-3.3005,-3.3006,-3.3006,-3.3027,-3.3027,-3.3027,0,0,0,0,0,0,-3.2926,-3.2929,-3.2956,-3.2945,-3.2948,-3.2961,-3.2967,-3.2969,-3.2973,-3.2984,-3.2986,-3.2979,-3.2995,-3.2997,-3.3005,-3.3007,-3.3006,-3.3007,-3.3027,-3.3027,-3.3027,-3.3022,0,0,0,0,0,0,-3.2925,-3.2929,-3.2931,-3.2945,-3.2949,-3.2963,-3.2967,-3.2969,-3.2975,-3.2976,-3.2987,-3.2989,-3.2995,-3.3004,-3.3006,-3.3008,-3.3008,-3.3027,-3.3027,-3.3027,-3.3022,-3.3022,-3.3022,0,0,0,0,0,-3.2924,-3.2928,-3.2931,-3.2934,-3.2952,-3.2963,-3.2965,-3.2974,-3.2975,-3.2977,-3.2985,-3.2988,-3.3007,-3.3005,-3.3007,-3.301,-3.3027,-3.3027,-3.3027,-3.3022,-3.3022,-3.3022,0,0,0,0,0,0,-3.2912,-3.2929,-3.2934,-3.2942,-3.2951,-3.2965,-3.2968,-3.2973,-3.2981,-3.2981,-3.299,-3.2993,-3.3001,-3.3006,-3.3003,-3.3016,-3.3017,-3.3018,-3.3012,-3.3012,-3.3012,-3.3011,-3.3008,0,0,0,0,0,-3.291,-3.2919,-3.2933,-3.2939,-3.2944,-3.2955,-3.296,-3.2966,-3.2976,-3.2979,-3.2987,-3.2995,-3.3003,-3.3008,-3.3016,-3.3023,-3.3026,-3.3026,-3.3026,-3.3026,-3.3026,-3.3032,-3.3033,-3.3028,-3.3028,-3.3028,0,0,-3.2906,-3.2917,-3.2922,-3.2937,-3.2945,-3.2953,-3.2958,-3.2966,-3.2972,-3.298,-3.2989,-3.2995,-3.3005,-3.3014,-3.3017,-3.3018,-3.3028,-3.3026,-3.3026,-3.3026,-3.3032,-3.3033,-3.3033,-3.3028,-3.3028,-3.3028,0,0,-3.2904,-3.2913,-3.292,-3.2929,-3.2941,-3.2949,-3.2951,-3.2965,-3.297,-3.298,-3.2986,-3.2993,-3.3006,-3.3014,-3.3019,-3.3023,-3.3027,-3.3025,-3.3025,-3.3031,-3.3031,-3.3031,-3.3034,-3.3035,-3.3026,-3.3026,-3.3026,0,-3.2898,-3.2911,-3.2922,-3.2931,-3.2938,-3.2948,-3.2955,-3.2962,-3.2976,-3.2981,-3.2981,-3.3,-3.3007,-3.3018,-3.302,-3.3023,-3.3026,-3.3024,-3.303,-3.3031,-3.3031,-3.3034,-3.3035,-3.3026,-3.3026,-3.3026,-3.3026,0,-3.2903,-3.2913,-3.2917,-3.2933,-3.294,-3.2947,-3.296,-3.2966,-3.2972,-3.298,-3.299,-3.3,-3.3011,-3.3014,-3.3018,-3.3026,-3.3026,-3.3029,-3.303,-3.3031,-3.3034,-3.3035,-3.3025,-3.3025,-3.3025,-3.3025,0,0,-3.2892,-3.2916,-3.2917,-3.2926,-3.2942,-3.2949,-3.2958,-3.297,-3.2976,-3.2986,-3.2994,-3.3006,-3.3009,-3.3015,-3.3021,-3.3026,-3.3031,-3.3028,-3.3029,-3.3029,-3.3042,-3.304,-3.3041,-3.3034,-3.3034,-3.3034,-3.3041,0,-3.2892,-3.291,-3.2921,-3.2934,-3.2944,-3.2954,-3.2962,-3.2973,-3.2981,-3.299,-3.2999,-3.3008,-3.3011,-3.3015,-3.302,-3.3029,-3.3034,-3.3029,-3.3041,-3.3042,-3.3039,-3.3042,-3.304,-3.3046,-3.3042,-3.3042,-3.3042,0,-3.2895,-3.2907,-3.2922,-3.294,-3.2944,-3.2951,-3.2964,-3.2973,-3.2986,-3.2991,-3.3,-3.3007,-3.3017,-3.3018,-3.3032,-3.3028,-3.3034,-3.304,-3.304,-3.3042,-3.3042,-3.3044,-3.3048,-3.3049,-3.3044,-3.3044,-3.3044,0,-3.2887,-3.2907,-3.2919,-3.2925,-3.2946,-3.2951,-3.2959,-3.2972,-3.298,-3.2992,-3.2997,-3.3009,-3.3015,-3.3024,-3.3034,-3.3034,-3.3048,-3.3049,-3.3053,-3.3053,-3.3055,-3.3055,-3.306,-3.3058,-3.3058,-3.3058,-3.3058,0,-3.2886,-3.2895,-3.2916,-3.2923,-3.2933,-3.2946,-3.2956,-3.2965,-3.2977,-3.2987,-3.2996,-3.3004,-3.3017,-3.3027,-3.3035,-3.3046,-3.3049,-3.3054,-3.3056,-3.3053,-3.3053,-3.3057,-3.3057,-3.3058,-3.3058,-3.3058,-3.3058,0,-3.2878,-3.2892,-3.2906,-3.2926,-3.2931,-3.2938,-3.2955,-3.2962,-3.2972,-3.2984,-3.2987,-3.3002,-3.3015,-3.3026,-3.3041,-3.3047,-3.3059,-3.3061,-3.3055,-3.3056,-3.306,-3.306,-3.3069,-3.3071,-3.3067,-3.3067,-3.3067,0,-3.2877,-3.2884,-3.2906,-3.2914,-3.2923,-3.2935,-3.2944,-3.2958,-3.2966,-3.2983,-3.2989,-3.3003,-3.3014,-3.3034,-3.3045,-3.3058,-3.3061,-3.3063,-3.3063,-3.3061,-3.3062,-3.3062,-3.3063,-3.3063,-3.3063,-3.3063,-3.3063,0,-3.2874,-3.2882,-3.2895,-3.2911,-3.2922,-3.2934,-3.2947,-3.2953,-3.2969,-3.2979,-3.2993,-3.3002,-3.302,-3.3034,-3.3048,-3.3056,-3.3063,-3.3064,-3.3065,-3.3063,-3.306,-3.3063,-3.3056,-3.3063,-3.3063,-3.3063,-3.3063,-3.3063,-3.287,-3.2878,-3.2895,-3.291,-3.2922,-3.2935,-3.2944,-3.2956,-3.2969,-3.2986,-3.2993,-3.3007,-3.3022,-3.3043,-3.3051,-3.3063,-3.3064,-3.3066,-3.3067,-3.3067,-3.3068,-3.3058,-3.3065,-3.3065,-3.3065,-3.3065,-3.3065,0,-3.2868,-3.2881,-3.2895,-3.2914,-3.2926,-3.2933,-3.2949,-3.2958,-3.2971,-3.2985,-3.2998,-3.3015,-3.3029,-3.3043,-3.3058,-3.3064,-3.3068,-3.3068,-3.3067,-3.307,-3.3065,-3.3062,-3.3065,-3.3065,-3.3065,-3.3065,-3.3065,-3.3065,-3.2869,-3.2884,-3.2894,-3.2915,-3.2927,-3.2943,-3.2951,-3.2964,-3.2975,-3.2995,-3.3007,-3.3017,-3.3031,-3.3048,-3.3061,-3.3065,-3.307,-3.307,-3.3074,-3.307,-3.307,-3.307,-3.3067,-3.3071,-3.3071,-3.3078,-3.3079,-3.3079]}]]